Tracking 35035 objects as of 16-Aug-2026
HD Live streaming from Space Station
objects crossing your sky now

COSMOS 342

Track COSMOS 342 now!
10-day predictions
COSMOS 342 is classified as:


NORAD ID: 4389
Int'l Code: 1970-036G
Launch date: April 25, 1970
Source: Commonwealth of Independent States (former USSR) (CIS)
Launch site: PLESETSK MISSILE AND SPACE COMPLEX (PKMTR)
Your satellite tracking list
Your tracking list is empty




NASA's NSSDC Master Catalog

Two Line Element Set (TLE):
1 04389U 70036G   26228.43806385  .00000000  00000-0  80815-4 0  9993
2 04389  74.0287 288.0024 0100993 159.3149 213.0571 12.68340891606768
Source of the keplerian elements: AFSPC